Regional Weather Roundup
Issued by NWS

Home | Current Version | Previous Version | Text Only | Print | Product List | Glossary Off
Versions: 1 2 3 4 5 6 7 8 9 10 11 12 13 14 15 16 17 18 19 20 21 22 23 24 25 26 27 28 29 30 31 32 33 34 35 36 37 38 39 40 41 42 43 44 45 46 47 48 49 50

000
ASUS43 KDMX 181101
RWRIA

WEATHER ROUNDUP FOR IOWA
NATIONAL WEATHER SERVICE DES MOINES IA
500 AM CST SUN FEB 18 2018

NOTE: "FAIR" INDICATES FEW OR NO CLOUDS BELOW 12,000 FEET WITH NO
SIGNIFICANT WEATHER AND/OR OBSTRUCTIONS TO VISIBILITY.

* - THESE STATIONS ARE NOT NWS STATIONS...THUS NOT UNDER NWS
QUALITY CONTROL.  THEY ALSO DO NOT REPORT WEATHER SUCH
AS PRECIPITATION OR FOG.

IAZ001>003-012>014-020>022-031>034-043>046-181200-
   NORTHWEST IOWA

CITY           SKY/WX    TMP DP  RH WIND       PRES   REMARKS
CARROLL *      CLEAR     27  25  93 SE15      29.97F WCI  15
DENISON *      CLEAR     30  25  80 SE23G32   29.93F WCI  17
LE MARS *      PTCLDY    28  23  80 S14G20    29.83F WCI  17
ORANGE CITY *  PTCLDY    28  27  93 SE13G21   29.83F WCI  18
SHELDON *      CLOUDY    27  25  93 SE23G29   29.81F WCI  12
SIOUX CITY     CLEAR     27  23  85 SE14      29.85F WCI  16
SPENCER        CLOUDY    25  22  88 SE22      29.90F WCI  10
STORM LAKE *   CLOUDY    25  23  93 SE23      29.89F WCI  10
$$

IAZ055>058-069>071-079>083-090>094-181200-
   SOUTHWEST IOWA

CITY           SKY/WX    TMP DP  RH WIND       PRES   REMARKS
ATLANTIC *     CLEAR     32  27  80 S13       29.99F WCI  22
AUDUBON *      CLEAR     28  25  86 S6        29.99F WCI  22
CLARINDA *     CLEAR     32  25  74 S10       30.05F WCI  24
COUNCIL BLFS * CLEAR     30  28  93 S14       29.94F WCI  20
CRESTON *      CLEAR     30  25  80 S15       30.05F WCI  19
HARLAN  *      CLEAR     30  28  93 S16       29.99F WCI  19
LAMONI         CLEAR     28  21  75 S9        30.08S WCI  19
RED OAK *      CLEAR     34  25  69 S16G24    30.00F WCI  23
SHENANDOAH *   CLEAR     34  23  64 S16G22    30.00F WCI  23
$$

IAZ047>049-059>061-072>074-084-181200-
   CENTRAL IOWA

CITY           SKY/WX    TMP DP  RH WIND       PRES   REMARKS
AMES           PTCLDY    21  19  92 SE7       30.07S WCI  12
ANKENY *       CLEAR     21  19  93 SE5       30.10S FOG     WCI  15
BOONE *        CLOUDY    25  23  93 SE12      30.03F WCI  14
CHARITON *     CLEAR     27  25  93 SE9       30.09S WCI  17
DES MOINES     CLEAR     28  23  81 SE9       30.08S WCI  19
GRINNELL*      PTCLDY    21  20  96 SE8       30.12R WCI  11
KNOXVILLE *    CLEAR     27  23  86 SE8       30.09S WCI  18
MARSHALLTOWN   CLOUDY    17  16  95 SE8       30.10R WCI   7
NEWTON *       CLOUDY    21  21 100 SE10      30.11R WCI  10
PELLA *        CLEAR     25  23  92 SE7       30.12S WCI  18
$$

IAZ004>006-015-016-023>025-035-036-181200-
   NORTH CENTRAL IOWA

CITY           SKY/WX    TMP DP  RH WIND       PRES   REMARKS
CLARION *      CLOUDY    19  21 100 SE14      30.02S WCI   6
ESTHERVILLE    CLOUDY    21  19  92 SE16      29.93F WCI   7
FORT DODGE *   CLOUDY    24  22  91 SE12      30.01F WCI  13
MASON CITY     CLOUDY    19  16  88 SE9       30.04F WCI   8
FOREST CITY *  FAIR      21  21 100 SE7       30.03R WCI  13
IOWA FALLS *   FOG       18  16  93 SE8       30.07R VSB 1/4 WCI   7
$$

IAZ007>011-017>019-026>030-037>042-050>054-066-181200-
   NORTHEAST IOWA

CITY           SKY/WX    TMP DP  RH WIND       PRES   REMARKS
CEDAR RAPIDS   FAIR      15  10  80 SE5       30.12F HAZE    WCI   8
CHARLES CITY * CLOUDY    18  18 100 E9        30.06F WCI   6
CLINTON *      FOG        6   3  87 E9        30.20F VSB 1/4 WCI  -8
DECORAH *      FAIR      16  16 100 SE5       30.08F WCI   9
DUBUQUE        FOG       12   8  84 CALM      30.15S VSB 1/4
MONTICELLO *   FOG       16  14  93 E3        30.14F VSB 1/4
OELWEIN *      CLOUDY    14  14 100 SE8       30.10S FOG     WCI   3
WATERLOO       FAIR      10   8  92 SE6       30.10R FOG     WCI   0
$$

IAZ064-065-067-068-078-181200-
   EAST CENTRAL IOWA

CITY           SKY/WX    TMP DP  RH WIND       PRES   REMARKS
DAVENPORT      FAIR      15   9  76 SE8       30.20S HAZE    WCI   4
IOWA CITY      FOG       18  14  84 SE3       30.17F VSB 1/2
MUSCATINE *    FOG       18  16  93 CALM      30.18F VSB<1/4
QUAD CITIES    FAIR       9   8  96 E3        30.19S
$$

IAZ062-063-075>077-085>089-095>099-181200-
   SOUTHEAST IOWA

CITY           SKY/WX    TMP DP  RH WIND       PRES   REMARKS
BURLINGTON     CLEAR     24  22  91 SE7       30.16F WCI  16
FAIRFIELD *    CLEAR     23  21  93 SE7       30.14R WCI  15
FORT MADISON * CLEAR     28  27  93 SE6       30.16F WCI  22
KEOKUK *       CLEAR     28  27  93 SE8       30.16F WCI  20
OTTUMWA        CLEAR     27  23  85 S9        30.13R WCI  18
WASHINGTON *   CLOUDY    21  21 100 SE9       30.15F WCI  11
$$

ABBREVIATIONS USED IN REMARKS
   TC - TEMPERATURES IN CELSIUS
  WCI - WIND CHILL INDEX
   HX - HEAT INDEX
  VSB - VISIBILITY
$$





USA.gov is the U.S. government's official web portal to all federal, state and local government web resources and services.